ONEWEB-0394 (50474 NORAD) Tracking and Keplerian Element Data

This shows tracking and keplerian element data for the satellite.

Feedback or suggestion? Click here.




ElementValue
Catalog50474
NameONEWEB-0394
Epoch Orbit130
Epoch Day140.58334491
Epoch Year2022
RAAN305.2929
Inclination87.2213
Eccentricity0.0003329
Argument of Perigee134.1625
Mean Anonmoly206.7938
Mean Motion14.92478306
Decay Rate-0.00054015
L11 50474U 21132F 22140.58334491 -.00054015 00000+0 -53178-2 0 9997
L22 50474 87.2213 305.2929 0003329 134.1625 206.7938 14.92478306 1307

Live tracking and technical data element details for ONEWEB-0394 (NORAD 50474). ONEWEB-0394 can be tracked NOW for your location showing map with azimuth and elevation plus other details from your city location.

Track the satellite on the map from your city or location and see movement details for azimuth, elevation, latitude, longitude, range, height, and movement on the map or in text.







IsCatalogInMostPopularTable: catalog: 50474, numindb: 20
Update: records affected: 1



GetName: 50474 ONEWEB-0394

Hit Count: updated at: Mon, 23 May 2022 21:22:04 GMT